Time,TemperatureF,DewpointF,PressureIn,WindDirection,WindDirectionDegrees,WindSpeedMPH,WindSpeedGustMPH,Humidity,HourlyPrecipIn,Conditions,Clouds,dailyrainin,SoftwareType,DateUTC
2013-07-21 00:13:00,79.0,69.0,29.80,South,175,3.0,8.0,71,0.00,,,0.00,weatherlink.com 1.10,2013-07-21 05:13:00,
2013-07-21 00:28:00,78.7,69.0,29.80,South,177,1.0,9.0,72,0.00,,,0.00,weatherlink.com 1.10,2013-07-21 05:28:00,
2013-07-21 00:43:00,78.5,69.0,29.80,South,175,2.0,7.0,73,0.00,,,0.00,weatherlink.com 1.10,2013-07-21 05:43:00,
2013-07-21 00:58:00,78.1,69.0,29.80,South,174,0.0,5.0,74,0.00,,,0.00,weatherlink.com 1.10,2013-07-21 05:58:00,
2013-07-21 01:13:00,77.8,69.0,29.80,South,173,3.0,5.0,75,0.00,,,0.00,weatherlink.com 1.10,2013-07-21 06:13:00,
2013-07-21 01:28:00,77.6,70.0,29.80,South,173,2.0,5.0,76,0.00,,,0.00,weatherlink.com 1.10,2013-07-21 06:28:00,
2013-07-21 01:43:00,77.1,69.0,29.80,South,173,0.0,5.0,77,0.00,,,0.00,weatherlink.com 1.10,2013-07-21 06:43:00,
2013-07-21 01:58:00,76.7,69.0,29.80,South,173,2.0,5.0,78,0.00,,,0.00,weatherlink.com 1.10,2013-07-21 06:58:00,
2013-07-21 02:13:00,76.4,69.0,29.79,South,170,4.0,6.0,79,0.00,,,0.00,weatherlink.com 1.10,2013-07-21 07:13:00,
2013-07-21 02:28:00,76.4,69.0,29.80,South,169,2.0,6.0,79,0.00,,,0.00,weatherlink.com 1.10,2013-07-21 07:28:00,
2013-07-21 02:43:00,76.3,70.0,29.80,South,169,3.0,6.0,80,0.00,,,0.00,weatherlink.com 1.10,2013-07-21 07:43:00,
2013-07-21 02:58:00,76.4,70.0,29.80,South,169,2.0,5.0,80,0.00,,,0.00,weatherlink.com 1.10,2013-07-21 07:58:00,
2013-07-21 03:13:00,76.5,70.0,29.80,South,169,2.0,5.0,80,0.00,,,0.00,weatherlink.com 1.10,2013-07-21 08:13:00,
2013-07-21 03:28:00,76.6,70.0,29.80,South,169,0.0,6.0,80,0.00,,,0.00,weatherlink.com 1.10,2013-07-21 08:28:00,
2013-07-21 03:43:00,76.9,70.0,29.81,South,189,3.0,11.0,80,0.00,,,0.00,weatherlink.com 1.10,2013-07-21 08:43:00,
2013-07-21 03:58:00,76.7,71.0,29.81,South,189,0.0,7.0,81,0.00,,,0.00,weatherlink.com 1.10,2013-07-21 08:58:00,
2013-07-21 04:14:00,76.4,70.0,29.80,South,189,0.0,3.0,81,0.00,,,0.00,weatherlink.com 1.10,2013-07-21 09:14:00,
2013-07-21 04:29:00,75.9,70.0,29.80,South,189,0.0,1.0,82,0.00,,,0.00,weatherlink.com 1.10,2013-07-21 09:29:00,
2013-07-21 04:44:00,75.1,70.0,29.80,South,188,0.0,0.0,84,0.00,,,0.00,weatherlink.com 1.10,2013-07-21 09:44:00,
2013-07-21 04:59:00,74.5,70.0,29.80,South,189,0.0,0.0,85,0.00,,,0.00,weatherlink.com 1.10,2013-07-21 09:59:00,
2013-07-21 05:14:00,74.1,70.0,29.80,South,189,0.0,0.0,86,0.00,,,0.00,weatherlink.com 1.10,2013-07-21 10:14:00,
2013-07-21 05:29:00,73.9,70.0,29.80,South,188,0.0,0.0,87,0.00,,,0.00,weatherlink.com 1.10,2013-07-21 10:29:00,
2013-07-21 05:44:00,73.8,70.0,29.80,South,188,0.0,1.0,87,0.00,,,0.00,weatherlink.com 1.10,2013-07-21 10:44:00,
2013-07-21 05:59:00,73.7,69.0,29.80,South,189,0.0,1.0,86,0.00,,,0.00,weatherlink.com 1.10,2013-07-21 10:59:00,
2013-07-21 06:14:00,73.3,70.0,29.80,South,188,0.0,0.0,88,0.00,,,0.00,weatherlink.com 1.10,2013-07-21 11:14:00,
2013-07-21 06:29:00,72.9,69.0,29.81,South,189,0.0,1.0,88,0.00,,,0.00,weatherlink.com 1.10,2013-07-21 11:29:00,
2013-07-21 06:44:00,72.8,70.0,29.81,South,189,0.0,1.0,89,0.00,,,0.00,weatherlink.com 1.10,2013-07-21 11:44:00,
2013-07-21 06:59:00,72.4,69.0,29.81,South,190,0.0,0.0,89,0.00,,,0.00,weatherlink.com 1.10,2013-07-21 11:59:00,
2013-07-21 07:14:00,72.4,69.0,29.81,South,190,0.0,0.0,90,0.00,,,0.00,weatherlink.com 1.10,2013-07-21 12:14:00,
2013-07-21 07:29:00,73.4,70.0,29.81,South,186,0.0,0.0,89,0.00,,,0.00,weatherlink.com 1.10,2013-07-21 12:29:00,
2013-07-21 07:59:00,77.6,71.0,29.82,South,186,0.0,1.0,81,0.00,,,0.00,weatherlink.com 1.10,2013-07-21 12:59:00,
2013-07-21 08:14:00,78.0,71.0,29.83,South,186,0.0,3.0,79,0.00,,,0.00,weatherlink.com 1.10,2013-07-21 13:14:00,
2013-07-21 08:29:00,78.2,71.0,29.83,South,186,3.0,5.0,79,0.00,,,0.00,weatherlink.com 1.10,2013-07-21 13:29:00,
2013-07-21 08:44:00,78.3,71.0,29.83,South,188,4.0,7.0,79,0.00,,,0.00,weatherlink.com 1.10,2013-07-21 13:44:00,
2013-07-21 08:59:00,79.2,72.0,29.83,SSW,201,3.0,7.0,78,0.00,,,0.00,weatherlink.com 1.10,2013-07-21 13:59:00,
2013-07-21 09:14:00,79.9,72.0,29.84,South,189,4.0,8.0,76,0.00,,,0.00,weatherlink.com 1.10,2013-07-21 14:14:00,
2013-07-21 09:29:00,80.3,72.0,29.84,SSW,207,2.0,7.0,75,0.00,,,0.00,weatherlink.com 1.10,2013-07-21 14:29:00,
2013-07-21 09:44:00,81.4,72.0,29.83,SSW,199,5.0,8.0,73,0.00,,,0.00,weatherlink.com 1.10,2013-07-21 14:44:00,
2013-07-21 09:59:00,83.5,71.0,29.83,South,186,3.0,9.0,66,0.00,,,0.00,weatherlink.com 1.10,2013-07-21 14:59:00,
2013-07-21 10:14:00,84.2,70.0,29.83,South,179,0.0,9.0,63,0.00,,,0.00,weatherlink.com 1.10,2013-07-21 15:14:00,
2013-07-21 10:29:00,85.4,69.0,29.83,South,186,6.0,9.0,58,0.00,,,0.00,weatherlink.com 1.10,2013-07-21 15:29:00,
2013-07-21 10:45:00,86.7,69.0,29.83,South,185,10.0,10.0,56,0.00,,,0.00,weatherlink.com 1.10,2013-07-21 15:45:00,
2013-07-21 11:00:00,87.2,69.0,29.83,SSW,201,2.0,9.0,55,0.00,,,0.00,weatherlink.com 1.10,2013-07-21 16:00:00,
2013-07-21 11:15:00,88.2,69.0,29.83,SW,234,3.0,7.0,53,0.00,,,0.00,weatherlink.com 1.10,2013-07-21 16:15:00,
2013-07-21 11:30:00,88.0,67.0,29.82,SSW,199,2.0,9.0,50,0.00,,,0.00,weatherlink.com 1.10,2013-07-21 16:30:00,
2013-07-21 11:45:00,88.6,68.0,29.82,SSW,200,6.0,12.0,50,0.00,,,0.00,weatherlink.com 1.10,2013-07-21 16:45:00,
2013-07-21 12:00:00,89.1,68.0,29.82,South,188,2.0,9.0,49,0.00,,,0.00,weatherlink.com 1.10,2013-07-21 17:00:00,
2013-07-21 12:15:00,89.9,68.0,29.82,SW,234,2.0,8.0,48,0.00,,,0.00,weatherlink.com 1.10,2013-07-21 17:15:00,
2013-07-21 12:30:00,90.8,68.0,29.81,NW,321,0.0,8.0,48,0.00,,,0.00,weatherlink.com 1.10,2013-07-21 17:30:00,
2013-07-21 12:45:00,90.8,68.0,29.81,SSW,205,4.0,7.0,48,0.00,,,0.00,weatherlink.com 1.10,2013-07-21 17:45:00,
2013-07-21 13:00:00,91.6,67.0,29.81,SSW,197,0.0,14.0,45,0.00,,,0.00,weatherlink.com 1.10,2013-07-21 18:00:00,
2013-07-21 13:15:00,92.2,67.0,29.80,SSW,202,1.0,7.0,44,0.00,,,0.00,weatherlink.com 1.10,2013-07-21 18:15:00,
2013-07-21 13:30:00,91.8,68.0,29.79,South,188,6.0,8.0,46,0.00,,,0.00,weatherlink.com 1.10,2013-07-21 18:30:00,
2013-07-21 13:45:00,93.1,67.0,29.79,WSW,258,2.0,7.0,43,0.00,,,0.00,weatherlink.com 1.10,2013-07-21 18:45:00,
2013-07-21 14:00:00,92.9,67.0,29.78,SSE,162,5.0,9.0,43,0.00,,,0.00,weatherlink.com 1.10,2013-07-21 19:00:00,
2013-07-21 14:15:00,93.0,67.0,29.78,SSW,207,3.0,9.0,43,0.00,,,0.00,weatherlink.com 1.10,2013-07-21 19:15:00,
2013-07-21 14:30:00,93.8,69.0,29.77,SW,218,9.0,10.0,45,0.00,,,0.00,weatherlink.com 1.10,2013-07-21 19:30:00,
2013-07-21 14:45:00,93.5,68.0,29.76,South,177,2.0,6.0,43,0.00,,,0.00,weatherlink.com 1.10,2013-07-21 19:45:00,
2013-07-21 15:00:00,93.0,67.0,29.76,SSW,199,1.0,10.0,42,0.00,,,0.00,weatherlink.com 1.10,2013-07-21 20:00:00,
2013-07-21 15:15:00,92.5,68.0,29.75,South,173,4.0,7.0,45,0.00,,,0.00,weatherlink.com 1.10,2013-07-21 20:15:00,
2013-07-21 15:30:00,90.2,70.0,29.76,SSE,151,12.0,18.0,51,0.00,,,0.00,weatherlink.com 1.10,2013-07-21 20:30:00,
2013-07-21 15:45:00,88.2,73.0,29.75,SSE,149,3.0,9.0,60,0.00,,,0.00,weatherlink.com 1.10,2013-07-21 20:45:00,
2013-07-21 16:00:00,91.0,72.0,29.75,SSE,151,4.0,7.0,53,0.00,,,0.00,weatherlink.com 1.10,2013-07-21 21:00:00,
2013-07-21 16:15:00,93.6,71.0,29.75,SSE,161,8.0,8.0,48,0.00,,,0.00,weatherlink.com 1.10,2013-07-21 21:15:00,
2013-07-21 16:30:00,94.0,69.0,29.74,South,187,6.0,12.0,44,0.00,,,0.00,weatherlink.com 1.10,2013-07-21 21:30:00,
2013-07-21 16:45:00,93.3,69.0,29.74,SSW,192,10.0,17.0,45,0.00,,,0.00,weatherlink.com 1.10,2013-07-21 21:45:00,
2013-07-21 17:00:00,91.0,69.0,29.75,South,175,4.0,12.0,49,0.00,,,0.00,weatherlink.com 1.10,2013-07-21 22:00:00,
2013-07-21 17:17:00,-999.0,-99.9,0.00,North,-999,-999.0,-999.0,-999,0.00,,,0.00,weatherlink.com 1.10,2013-07-21 22:17:00,
2013-07-21 17:30:00,84.8,-99.9,29.76,SSW,206,6.0,14.0,-999,0.00,,,0.00,weatherlink.com 1.10,2013-07-21 22:30:00,
2013-07-21 17:45:00,85.1,69.0,29.76,SSW,213,3.0,8.0,59,0.00,,,0.00,weatherlink.com 1.10,2013-07-21 22:45:00,
2013-07-21 18:00:00,85.6,69.0,29.78,SE,134,2.0,9.0,58,0.00,,,0.00,weatherlink.com 1.10,2013-07-21 23:00:00,
2013-07-21 18:15:00,81.8,70.0,29.77,ESE,110,2.0,8.0,67,0.00,,,0.00,weatherlink.com 1.10,2013-07-21 23:15:00,
2013-07-21 18:30:00,81.3,70.0,29.77,East,90,0.0,6.0,69,0.00,,,0.00,weatherlink.com 1.10,2013-07-21 23:30:00,
2013-07-21 19:15:00,81.2,70.0,29.78,ESE,123,0.0,5.0,69,0.00,,,0.00,weatherlink.com 1.10,2013-07-22 00:15:00,
2013-07-21 19:30:00,81.2,71.0,29.77,ESE,123,0.0,2.0,70,0.00,,,0.00,weatherlink.com 1.10,2013-07-22 00:30:00,
2013-07-21 19:45:00,81.1,70.0,29.77,ESE,123,0.0,2.0,70,0.00,,,0.00,weatherlink.com 1.10,2013-07-22 00:45:00,
2013-07-21 20:00:00,81.1,70.0,29.77,ESE,123,0.0,3.0,70,0.00,,,0.00,weatherlink.com 1.10,2013-07-22 01:00:00,
2013-07-21 20:15:00,81.0,71.0,29.77,ESE,123,0.0,2.0,71,0.00,,,0.00,weatherlink.com 1.10,2013-07-22 01:15:00,
2013-07-21 20:30:00,80.8,71.0,29.77,ESE,123,0.0,1.0,72,0.00,,,0.00,weatherlink.com 1.10,2013-07-22 01:30:00,
2013-07-21 20:45:00,80.3,71.0,29.77,ESE,123,0.0,1.0,73,0.00,,,0.00,weatherlink.com 1.10,2013-07-22 01:45:00,
2013-07-21 21:00:00,79.9,71.0,29.78,ESE,123,0.0,2.0,74,0.00,,,0.00,weatherlink.com 1.10,2013-07-22 02:00:00,
2013-07-21 21:15:00,79.4,71.0,29.78,South,171,3.0,7.0,76,0.00,,,0.00,weatherlink.com 1.10,2013-07-22 02:15:00,
2013-07-21 21:30:00,78.8,71.0,29.79,SSE,158,2.0,7.0,78,0.00,,,0.00,weatherlink.com 1.10,2013-07-22 02:30:00,
2013-07-21 21:46:00,78.0,71.0,29.80,SSE,158,0.0,6.0,80,0.00,,,0.00,weatherlink.com 1.10,2013-07-22 02:46:00,
2013-07-21 22:01:00,77.4,71.0,29.80,SSE,158,1.0,3.0,81,0.00,,,0.00,weatherlink.com 1.10,2013-07-22 03:01:00,
2013-07-21 22:31:00,77.1,71.0,29.81,SSE,158,2.0,3.0,82,0.00,,,0.00,weatherlink.com 1.10,2013-07-22 03:31:00,
2013-07-21 22:46:00,77.1,71.0,29.82,SSE,158,5.0,5.0,82,0.00,,,0.00,weatherlink.com 1.10,2013-07-22 03:46:00,
2013-07-21 23:01:00,77.0,72.0,29.82,SSE,158,2.0,2.0,83,0.00,,,0.00,weatherlink.com 1.10,2013-07-22 04:01:00,
2013-07-21 23:30:00,77.0,72.0,29.83,SSE,158,1.0,4.0,84,0.00,,,0.00,weatherlink.com 1.10,2013-07-22 04:30:00,
2013-07-21 23:45:00,77.1,72.0,29.83,SSE,158,1.0,2.0,85,0.00,,,0.00,weatherlink.com 1.10,2013-07-22 04:45:00,